Погода в Жагани

Польша     51°36′52″N   15°18′04″E
темп.,
°C
ветер,
м/с
пор.,
м/с
влажн.,
%
обл.,
%
осадки,
мм/ч
давл.,
гПа
погр.,
м
29 июня, ср
ср2923:00+17всв22725 0.0 102043
02:00+16всв2480100 0.0 101975
05:00+16всв399432 0.0 1018264
08:00+20в4776100 0.0 1018585
11:00+17всв468397 0.2 1017419
14:00+25всв5554100 0.3 10151102
17:00+19ссв3672100 0.1 1016193
20:00+19св4886100 0.8 1014189
30 июня, чт
чт3023:00+19вюв41197100 3.8 1014440
02:00+19в3797100 4.1 1013385
05:00+18ююв4998100 0.6 1013405
08:00+20юв388951 0.9 1014527
11:00+25в226889 0.1 10131082
14:00+26в226220 0.2 10121013
17:00+30ююв345073 0.0 10111809
20:00+27вюв11635 0.0 101012
1 июля, пт
пт123:00+22юв38860 0.1 1011197
02:00+20юв22901 0.4 101116
05:00+19в229319 0.0 101129
08:00+24юз127181 0.0 1011315
11:00+27з5560100 0.1 10121088
14:00+20з5788100 1.2 1014551
17:00+19з5886100 0.8 1016871
20:00+15з61192100 1.9 1019783
2 июля, сб
сб223:00+15з51085100 0.0 1022699
02:00+14з4883100 0.0 1023536
05:00+12зюз38880 0.0 1023344
08:00+16з35670 0.0 1025560
11:00+22зсз34440 0.0 10251690
14:00+25сз23330 0.0 10242125
17:00+26с11310 0.0 10232105
20:00+22в22480 0.0 102243
3 июля, вс
вс323:00+16ююв22690 0.0 102328
02:00+15ююв25690 0.0 102281
05:00+14ююв22750 0.0 102223
08:00+20ююв23540 0.0 1021339
11:00+26ююв23380 0.0 10201619
14:00+28ююз34330 0.0 10192044
17:00+29ююз35300 0.0 10172450
20:00+25ю254919 0.0 1017115